OK5TVR-5 Weather Reports


Display with metric or nautical units.
time (UTC)temp
F
wind
direction
speed
MPH
gust
MPH
rain 1hr
in
rain 24hr
in
rain mn
in
humidity
%
barometer
mb
20260906013637 50 222 0.0 0.0 0.00 0.00 0.00 78 1019.8
20260906012137 50 270 0.0 0.0 0.00 0.00 0.00 77 1019.8
20260906010637 51 270 0.0 0.0 0.00 0.00 0.00 74 1019.5
20260906005138 52 270 0.0 0.0 0.00 0.00 0.00 73 1019.4
20260906003637 52 270 0.0 3.0 0.00 0.00 0.00 74 1019.5
20260906002137 53 270 0.0 0.0 0.00 0.00 0.00 71 1019.1
20260906000637 53 270 1.0 3.0 0.00 0.00 0.00 71 1019.1
20260905235137 53 270 2.0 6.0 0.00 0.00 0.00 72 1019.1
20260905233637 53 270 1.0 5.0 0.00 0.00 0.00 71 1018.9
20260905232137 53 270 1.0 6.0 0.00 0.00 0.00 72 1018.8
20260905230637 53 270 0.0 5.0 0.00 0.00 0.00 74 1018.8
20260905225137 53 270 2.0 6.0 0.00 0.00 0.00 73 1018.7
20260905223642 53 222 0.0 0.0 0.00 0.00 0.00 72 10.1
20260905223637 53 222 0.0 0.0 0.00 0.00 0.00 72 1018.5
20260905222137 54 222 0.0 0.0 0.00 0.00 0.00 69 1018.5
20260905220637 54 270 1.0 7.0 0.00 0.00 0.00 71 1018.4
20260905215137 54 222 1.0 7.0 0.00 0.00 0.10 70 1018.5
20260905213637 55 270 1.0 8.0 0.00 0.00 0.10 67 1018.2
20260905212137 54 270 1.0 6.0 0.00 0.00 0.10 69 1018.1
20260905210637 55 270 0.0 3.0 0.00 0.00 0.10 67 1018.0
20260905205137 55 270 1.0 6.0 0.00 0.00 0.10 67 1018.0
20260905203637 55 270 0.0 0.0 0.00 0.00 0.10 68 1017.8
20260905202137 56 270 0.0 0.0 0.00 0.00 0.10 67 1017.7
20260905200637 58 222 0.0 0.0 0.00 0.00 0.10 61 1017.3
20260905184458 64 270 5.0 13.0 0.00 0.00 0.10 47 1015.9
20260905171821 68 270 7.0 13.0 0.00 0.00 0.10 45 1014.4
20260905170321 70 315 7.0 17.0 0.00 0.00 0.10 43 1014.0
20260905164821 70 270 9.0 18.0 0.00 0.00 0.10 42 1013.5
20260905163322 71 222 8.0 17.0 0.00 0.00 0.10 39 1013.2
20260905161822 72 222 9.0 17.0 0.00 0.00 0.10 37 1012.7
20260905135228 72 222 8.0 18.0 0.00 0.00 0.10 44 1011.9
20260905133721 73 222 10.0 18.0 0.00 0.00 0.10 42 1011.9
20260905132221 73 315 10.0 18.0 0.00 0.00 0.10 42 1012.0
20260905130721 73 222 10.0 18.0 0.00 0.00 0.10 44 1012.2
20260905125221 73 222 10.0 18.0 0.00 0.00 0.10 43 1012.1
20260905123721 73 0 8.0 18.0 0.00 0.00 0.10 47 1012.2
20260905122221 72 0 11.0 18.0 0.00 0.00 0.10 47 1012.0
20260905120721 72 222 8.0 18.0 0.00 0.00 0.10 48 1012.4
20260905115221 72 222 8.0 17.0 0.00 0.00 0.10 50 1012.5
20260905113721 68 270 8.0 17.0 0.00 0.00 0.10 52 1012.9
20260905112221 69 222 5.0 11.0 0.00 0.00 0.10 57 1013.1
20260905110721 68 222 6.0 17.0 0.00 0.00 0.10 55 1013.0
20260905105221 68 222 5.0 13.0 0.00 0.00 0.10 58 1013.1
20260905103721 69 270 7.0 17.0 0.00 0.00 0.10 55 1013.0
20260905102221 70 180 7.0 17.0 0.00 0.00 0.10 59 1013.0
20260905100721 66 180 10.0 18.0 0.00 0.00 0.10 57 1013.4
20260905095221 67 222 6.0 15.0 0.01 0.00 0.10 60 1013.1
20260905093721 66 270 7.0 16.0 0.01 0.00 0.10 61 1013.4
20260905092221 64 222 7.0 18.0 0.01 0.00 0.10 69 1013.6
20260905090721 63 222 8.0 16.0 0.01 0.00 0.10 71 1013.8
20260905085221 64 222 6.0 16.0 0.00 0.00 0.09 68 1013.5
20260905083721 63 222 8.0 17.0 0.00 0.00 0.09 71 1013.8
20260905082221 62 270 6.0 15.0 0.00 0.00 0.09 74 1013.9
20260905080721 63 222 5.0 12.0 0.00 0.00 0.09 74 1013.3
20260905075221 62 222 5.0 16.0 0.00 0.00 0.09 78 1013.6
20260905073721 60 222 6.0 15.0 0.00 0.00 0.09 81 1013.8
20260905072221 59 270 5.0 15.0 0.00 0.00 0.09 83 1013.8
20260905070721 59 222 4.0 14.0 0.00 0.00 0.09 81 1013.6
20260905065221 58 270 4.0 11.0 0.00 0.00 0.09 82 1013.3
20260905063721 58 222 3.0 11.0 0.00 0.00 0.09 85 1013.4
20260905062221 58 222 4.0 13.0 0.00 0.00 0.09 87 1013.6
20260905060721 56 222 2.0 9.0 0.00 0.00 0.09 89 1013.7
20260905055221 56 222 2.0 10.0 0.00 0.00 0.09 90 1013.5
20260905053721 55 270 1.0 8.0 0.00 0.00 0.09 92 1013.4
20260905052221 55 222 2.0 7.0 0.00 0.00 0.09 93 1013.3
20260905050721 55 222 1.0 4.0 0.00 0.00 0.09 93 1012.8
20260905045221 56 222 1.0 8.0 0.00 0.00 0.09 91 1012.4
20260905043721 56 222 0.0 3.0 0.03 0.00 0.09 89 1012.3
20260905042221 56 222 3.0 9.0 0.05 0.00 0.09 88 1012.3
20260905040721 56 222 2.0 5.0 0.07 0.00 0.09 90 1011.8
20260905035221 58 222 2.0 8.0 0.08 0.00 0.09 83 1011.2
20260905033721 59 270 0.0 3.0 0.04 0.00 0.05 82 1011.8
20260905032221 58 222 2.0 8.0 0.03 0.00 0.03 84 1012.2
20260905030721 59 222 4.0 10.0 0.02 0.00 0.02 81 1011.9
20260905025221 61 270 1.0 8.0 0.01 0.00 0.01 76 1011.4
20260905023721 60 222 3.0 10.0 0.01 0.00 0.01 75 1011.3
20260905022221 61 315 5.0 13.0 0.00 0.00 0.00 72 1011.0
20260905020721 63 222 1.0 9.0 0.00 0.00 0.00 74 1011.0
20260905015221 64 315 0.0 0.0 0.00 0.00 0.00 71 1009.6